Regional Weather Roundup
Issued by NWS Grand Forks, ND

Home | Current Version | Previous Version | Text Only | Print | Product List | Glossary On
Versions: 1 2 3 4 5 6 7 8 9 10 11 12 13 14 15 16 17 18 19 20 21 22 23 24 25 26 27 28 29 30 31 32 33 34 35 36 37 38 39 40 41 42 43 44 45 46 47 48 49 50
000
ASUS43 KFGF 011910
RWRFGF
PRAIRIE TO PINES  WEATHER ROUNDUP
NATIONAL WEATHER SERVICE EASTERN NORTH DAKOTA/GRAND FORKS ND
200 PM CDT SAT AUG 01 2015

 **SATELLITE DATA USED TO AUGMENT SKY COVER AT AUTOMATED STATIONS**
 *****  WEATHER ACROSS EASTERN NORTH DAKOTA  *****

CITY           SKY/WX    TMP DP  RH WIND       PRES   REMARKS
GRAND FORKS    MOSUNNY   84  54  35 SW10      29.82F
GRAND FRKS AFB SUNNY     83  57  41 VRB5      29.83F
GRAND FRKS NWS   N/A     82 N/A N/A SW12        N/A
DEVILS LAKE    SUNNY     82  55  39 SW9       29.83F
FARGO          MOSUNNY   84  58  40 SE10      29.84F
WAHPETON ARPT  PTCLDY    84  54  34 S12G18    29.85F
$$

 ***** WEATHER ACROSS CENTRAL AND WESTERN NORTH DAKOTA  *****

CITY           SKY/WX    TMP DP  RH WIND       PRES   REMARKS
BISMARCK       SUNNY     86  59  39 N8        29.84F
MINOT          SUNNY     87  48  25 SE7       29.84F
JAMESTOWN      SUNNY     84  61  45 S10       29.85F
MINOT AFB      SUNNY     89  52  28 SW8       29.83F
GARRISON         N/A     82  57  42 CALM      29.86F
WILLISTON      SUNNY     89  54  30 SW6       29.85F
DICKINSON      SUNNY     89  47  23 VRB7      29.90F
HETTINGER      SUNNY     91  42  18 NW14      29.94F
$$

 *****  OTHER AIRPORT OBSERVATIONS IN OUR AREA  *****

CITY           SKY/WX    TMP DP  RH WIND       PRES   REMARKS
WALHALLA       FAIR      81  55  41 MISG      29.82F
GRAFTON AIRPOR FAIR      82  55  39 SW8G14    29.83F
VALLEY CITY AR FAIR      82  61  47 S12       29.85F
CANDO          NOT AVBL
CAVALIER APRT  FAIR      81  55  41 SW6       29.82F
GWINNER        FAIR      82  64  54 SE13      29.85F
ROLLA            N/A     79  57  47 W5        29.87F
 ***** THE ABOVE OBSERVATIONS ARE NON NWS ARE NOT QUALITY
       CONTROLLED AND MAY MIS-REPORT RAIN FOR SNOW...
$$

  *****  WEATHER ACROSS NORTHERN MINNESOTA  *****

CITY           SKY/WX    TMP DP  RH WIND       PRES   REMARKS
FLAG ISLAND    SUNNY     75  45  33 SW13      29.79F
WARROAD        SUNNY     79  55  44 W15       29.83F
ROSEAU         SUNNY     79  55  44 SW13      29.83F
HALLOCK        SUNNY     81  52  36 W8        29.81F
THF RVR FALLS  SUNNY     79  54  41 SW8       29.85F
BAUDETTE       MOSUNNY   80  49  33 W12       29.82F
WASKISH        SUNNY     79  57  47 SW10      29.86F
CROOKSTON      SUNNY     81  57  44 S6        29.85F
STEPHEN NDAWN    N/A     82  55  39 S8          N/A
GREENBUSH NDAW   N/A     81  54  39 W10         N/A
$$
  *****  WEATHER ACROSS CENTRAL AND WEST MINNESOTA  *****

CITY           SKY/WX    TMP DP  RH WIND       PRES   REMARKS
FOSSTON        SUNNY     81  55  41 SW7       29.87F
BEMIDJI          N/A     79  52  38 W8        29.87F
PARK RAPIDS    PTSUNNY   81  52  36 W7        29.89F
ELBOW LAKE     FAIR      81  58  45 S12       29.88F
WADENA         MOSUNNY   81  52  36 S3        29.90F
DETROIT LAKES  MOSUNNY   79  52  38 S7        29.90F
MOORHEAD       MOSUNNY   81  57  44 SE8       29.86F
FERGUS FALLS   MOSUNNY   81  59  47 S8        29.86F
MORRIS MN      MOSUNNY   81  64  57 S10       29.88F
STAPLES        SUNNY     81  48  32 SW3       29.90F
$$
  *****  WEATHER ELSEWHERE ACROSS MINNESOTA  *****

CITY           SKY/WX    TMP DP  RH WIND       PRES   REMARKS
DULUTH         MOSUNNY   79  50  36 NW16      29.89F
INTRNTL FALLS  SUNNY     77  51  40 W10       29.82F
ELY            MOSUNNY   75  46  35 W12G17    29.85F
CLOQUET        SUNNY     79  45  29 W10G24    29.90S
WHEATON        MOSUNNY   79  64  61 SE15      29.87F
BRAINERD       SUNNY     81  51  35 W9        29.90F
HIBBING        SUNNY     79  47  32 W12       29.88F
ALEXANDRIA     MOSUNNY   80  54  40 SW8       29.93F
SAINT CLOUD    SUNNY     82  49  31 SW5       29.91F
MINNEAPOLIS    MOSUNNY   84  56  38 NW8       29.92F
$$

  *****  WEATHER ACROSS SOUTH DAKOTA  *****

CITY           SKY/WX    TMP DP  RH WIND       PRES   REMARKS
SIOUX FALLS    PTSUNNY   81  62  52 SW10G20   29.94F
BROOKINGS      SUNNY     82  63  51 SW17      29.95F
WATERTOWN      PTSUNNY   83  65  54 S15       29.91S
HURON          MOSUNNY   88  61  40 SW21G28   29.88F
SISSETON         N/A     82  66  58 S15       29.84F
ABERDEEN       SUNNY     86  68  54 S16G22    29.84F
MITCHELL       PTSUNNY   83  59  44 SW20G26   29.92F
PIERRE         SUNNY     92  60  34 W17G23    29.87F HX  91
MOBRIDGE       SUNNY     93  58  30 W9        29.81F HX  92
RAPID CITY     SUNNY     88  57  34 CALM      30.01F
$$

  *****  SOME WEATHER IN NEARBY STATES *****

CITY           SKY/WX    TMP DP  RH WIND       PRES   REMARKS
GLASGOW MT     SUNNY     92  45  19 NW10      29.84F
GREAT FALLS MT SUNNY     93  28  10 W17G23    29.99F
CHEYENNE WY    MOSUNNY   89  33  13 VRB3      30.19F
SCOTTSBLUFF NE SUNNY     90  56  31 S5        30.04F
OMAHA NE       CLOUDY    82  65  56 S7        30.00S
DES MOINES IA  PTSUNNY   86  71  60 W9        29.98F HX  91
DAVENPORT IA   MOSUNNY   83  62  49 SW13      29.98F
CHICAGO IL     MOSUNNY   86  56  35 W16G23    29.94F
EAU CLAIRE WI  SUNNY     81  53  37 W9        29.93F
LA CROSSE WI   MOSUNNY   83  63  50 N6        29.93F
$$

  *****  SOME NATIONAL WEATHER *****

CITY           SKY/WX    TMP DP  RH WIND       PRES   REMARKS
LA GUARDIA NY  PTSUNNY   90  52  27 W14       29.77F
RALEIGH NC     MOSUNNY   92  59  33 VRB3      29.91F HX  91
ATLANTA GA     PTSUNNY   86  65  49 NE10      29.98F
NEW ORLEANS LA MOSUNNY   90  70  51 NE12      29.92F HX  95
OKLAHOMA CITY  MOSUNNY   89  66  46 S6        30.06F HX  91
ALBUQUERQUE NM MOSUNNY   83  55  38 W9        30.23F
SALT LAKE CITY PTSUNNY   90  31  12 NW6       30.11F
LOS ANGELES CA MOSUNNY   74  63  68 SW10      29.97F
BOISE ID       SUNNY     97  35  11 CALM      30.01F HX  92
SEATTLE WA     MOSUNNY   79  51  37 W5        30.01F
$$

*** WEATHER ACROSS MANITOBA...SASKATCHEWAN AND ONTARIO ***
                ***ONTARIO***

CITY           SKY/WX    TMP DP  RH WIND       PRES   REMARKS
GERALDTON      NOT AVBL
THUNDER BAY    PTSUNNY   77  54  44 W16       29.76F
SIOUX LOOKOUT  LGT RAIN  59  57  94 NW12G36   29.79R
TORONTO        PTSUNNY   79  54  41 W13G21    29.82F
BIG TROUT LK   MOSUNNY   70  48  46 NW17G24   29.48F
PICKLE LAKE    LGT RAIN  63  54  72 W20G31    29.64S
DRYDEN         CLOUDY    72  52  49 SW17G25   29.75F
KENORA         PTSUNNY   73  48  40 W14G26    29.79F
$$
                *** MANITOBA***

CITY           SKY/WX    TMP DP  RH WIND       PRES   REMARKS
BRANDON        PTSUNNY   79  59  50 W13       29.80F
DAUPHIN        SUNNY     75  61  60 NE5       29.76F
ISLAND LAKE    MOSUNNY   70  45  40 NW16G26   29.60F
PILOT MOUND      N/A     79  55  44 W7          N/A
THE PAS        MOSUNNY   72  50  46 N10G18    29.74F
THOMPSON       PTSUNNY   64  46  52 NW12G25   29.64F
WINNIPEG       MOSUNNY   81  55  41 W15       29.79F
LYNN LAKE      SUNNY     66  41  39 N18G26    29.73F
CHURCHILL      LGT RAIN  46  45  93 N21G29    29.48R FOG
GILLAM         DRIZZLE   55  52  88 N21G30    29.53S
$$
                ***SASKATCHEWAN***

CITY           SKY/WX    TMP DP  RH WIND       PRES   REMARKS
ESTEVAN        MOSUNNY   88  52  29 SW9       29.82F
KINDERSLEY     PTSUNNY   77  48  36 N21       29.92S
LLOYDMINSTER   PTSUNNY   70  57  64 NW13G20   29.93F
PRINCE ALBERT  CLOUDY    68  57  68 NW7       29.87S
REGINA         MOSUNNY   82  57  42 E8        29.81F
YORKTON        SUNNY     75  59  57 NW13      29.80F
N. BATTLEFORD  RAIN      64  57  77 W6        29.93F
LA RONGE       PTSUNNY   68  52  56 NW8       29.84F
SASKATOON      PTSUNNY   72  57  60 N12       29.91R
SWIFT CURRENT  SUNNY     81  55  41 NE17G24   29.87R
$$
NOTE: THESE ARE AUTOMATED STATIONS WITH LIMITED QUALITY CONTROL
      "FAIR" INDICATES FEW OR NO CLOUDS BELOW 12,000 FEET WITH NO
      SIGNIFICANT WEATHER AND/OR OBSTRUCTIONS TO VISIBILITY.
      SKY/WX - SKY CONDITION AND SIGNIFICANT WEATHER.
      TMP - AIR TEMPERATURE.    DP   - DEWPOINT TEMPERATURE.
      RH  - RELATIVE HUMIDITY.  PRES - PRESSURE.
      HX  - HEAT INDEX.         WCI  - WIND CHILL INDEX.
$



USA.gov is the U.S. government's official web portal to all federal, state and local government web resources and services.